Location: 81360 Arifat, France
(43.7204°N, 2.3408°E)
Time: 11:29:30
(UTC+02:00)

GHALIB - Pass Details

Date: 29 May 2022
Orbit: 510 x 523 km, 97.6° (Epoch: 02 July)

Event Time Altitude Azimuth Distance (km) Brightness Sun altitude
Exits shadow 04:19:39 23° 260° (W) 1,133 ? -16.0°
Maximum altitude 04:19:52 23° 265° (W) 1,130 ? -16.0°
Drops below altitude 10° 04:22:58 10° 320° (NW) 1,763 ? -15.6°
Sets 04:25:23 0° 335° (NNW) 2,655 ? -15.4°
